User: anonymous   Login
Location: Tamazert
(32.6352°N, 5.2072°W)
Time: 16:08:44
(UTC+00:00)
Language:

Vanguard 3 - Orbit

View from above orbital plane
View from above orbital plane
View from above satellite
View from above satellite

Ground track
Ground track

The orbit data is extracted from the following two-line orbital elements,

1 00020U 59007A   22268.86479262  .00000356  00000-0  14387-3 0  9997
2 00020  33.3449 102.6450 1664520 353.3401   4.7384 11.56266425326714
Epoch (UTC): 25 September 2022 20:45:18
Eccentricity: 0.1664520
inclination: 33.3449°
perigee height: 508 km
apogee height: 3258 km
right ascension of ascending node: 102.6450°
argument of perigee: 353.3401°
revolutions per day: 11.56266425
mean anomaly at epoch: 4.7384°
orbit number at epoch: 32671

The dashed part of the orbit path shows where the satellite is in the earth's shadow,  

DLR